{"data":{"norad_id":67941,"epoch":"2026-09-19T04:07:37.365600Z","epoch_age_seconds":177913,"freshness":"STALE","line1":"1 67941U 26037K   26262.17196025  .00015775  00000+0  58129-3 0  9996","line2":"2 67941  43.0010 177.8341 0001501 267.7386  92.3294 15.27594377 32930","mean_motion":15.27594377,"eccentricity":0.0001501,"inclination_deg":43.001,"raan_deg":177.8341,"arg_perigee_deg":267.7386,"mean_anomaly_deg":92.3294,"bstar":0.00058129,"rev_number":3293,"period_min":94.265861519337,"perigee_km":481.97618889592,"apogee_km":484.03590403847,"semimajor_km":6861.1430464672,"source":"CELESTRAK","updated_at":"2026-09-20T09:00:43.708527Z"}}